Flag for Norway Weather past 2 weeks in Arendal, Norway

Now
45 °F

Cool.


Feels Like: 40 °F
Forecast: 41 / 53 °F
Wind: 10 mph from Southwest

Location: Torungen Fyr


UV Index: 0 (Low)

Visibility: N/A


Pressure: 29.50 "Hg

Humidity: 91%

Dew point: 43 °F

Location of ArendalLocation

Historic Weather in Arendal

°F

Arendal temperature yesterday

Maximum temperature yesterday: 45 °F (at 1:00 PM)
Minimum temperature yesterday: 39 °F (at 3:00 AM)
Average temperature yesterday: 43 °F

Past Weeks' High & Low Weather Summary

 TemperatureHumidityPressure
High54 °F (Apr 11, 3:00 PM)100% (Apr 10, 7:00 PM)30.36 "Hg (Apr 10, 7:00 PM)
Low38 °F (Apr 11, 6:00 AM)33% (Apr 14, 5:00 PM)29.44 "Hg (Apr 14, 3:00 AM)
Average44 °F77%29.92 "Hg
* Reported Apr 9 12:00 Noon — Apr 17 5:00 PM, Arendal, Weather by CustomWeather, © 2014

Note: Actual official high and low records may vary slightly from our data, if they occured in-between our weather recording intervals... More about our weather records

Advertising

Historic Weather Conditions — Data for Previous 24 hours

 ConditionsComfort  
Time TempWeatherWind HumidityBarometerVisibility
5:00 PM
Apr 17
45 °FCool.10 mph91%29.50 "HgN/A
3:00 PM45 °FQuite cool.17 mph97%29.55 "HgN/A
2:00 PM45 °FLight rain. Low clouds.20 mph96%29.59 "Hg6 mi
1:00 PM45 °FQuite cool.14 mph94%29.64 "HgN/A
11:00 AM45 °FCool.16 mph95%29.75 "HgN/A
10:00 AM46 °FCool.15 mph90%29.79 "HgN/A
9:00 AM46 °FCool.13 mph89%29.84 "HgN/A
8:00 AM45 °FOvercast.12 mph91%29.87 "Hg12 mi
7:00 AM45 °FCool.13 mph91%29.91 "HgN/A
6:00 AM45 °FCool.13 mph90%29.96 "HgN/A
5:00 AM44 °FQuite cool.10 mph89%30.01 "HgN/A
4:00 AM44 °FQuite cool.12 mph90%30.05 "HgN/A
3:00 AM44 °FQuite cool.12 mph86%30.09 "HgN/A
2:00 AM43 °FQuite cool.10 mph86%30.13 "HgN/A
1:00 AM43 °FQuite cool.10 mph86%30.17 "HgN/A
12:00 AM43 °FQuite cool.10 mph86%30.19 "HgN/A
11:00 PM
Apr 16
44 °FQuite cool.9 mph87%30.21 "HgN/A
Weather by CustomWeather, © 2014

See weather overview